Flag for U.S.A. Weather past 2 weeks in Bridgewater, Massachusetts, U.S.A.

Now
42 °F

Clear.


Feels Like: 42 °F
Forecast: 41 / 64 °F
Wind: No wind

Location: Taunton Municipal Airport

Current Time: Oct 25, 2014 at 3:20:30 AM

Latest Report: Oct 25, 2014 at 2:52 AM


Visibility: 10 mi

Pressure: 29.75 "Hg

Humidity: 92%

Dew point: 40 °F

Location of BridgewaterLocation

Historic Weather in Bridgewater — Graph

°F

Bridgewater temperature yesterday

Maximum temperature yesterday: 55 °F (at 3:52 PM)
Minimum temperature yesterday: 48 °F (at 11:52 PM)
Average temperature yesterday: 51 °F

Past Weeks' High & Low Weather Summary

 TemperatureHumidityPressure
High79 °F (Oct 15, 12:52 PM)97% (Oct 10, 5:52 AM)30.37 "Hg (Oct 10, 5:52 AM)
Low28 °F (Oct 20, 6:52 AM)37% (Oct 12, 2:52 PM)29.50 "Hg (Oct 18, 4:52 PM)
Average55 °F81%29.93 "Hg
* Reported Oct 10 1:54 AM — Oct 25 1:52 AM, Bridgewater, Weather by CustomWeather, © 2014

Note: Actual official high and low records may vary slightly from our data, if they occured in-between our weather recording intervals... More about our weather records

Advertising

Bridgewater weather history for previous 24 hours

 ConditionsComfort  
Time TempWeatherWind HumidityBarometerVisibility
1:52 AM
Oct 25
44 °FPassing clouds.3 mph89%29.75 "Hg10 mi
12:52 AM45 °FPassing clouds.3 mph86%29.75 "Hg10 mi
11:52 PM
Oct 24
48 °FPassing clouds.6 mph80%29.75 "Hg10 mi
10:52 PM50 °FOvercast.5 mph77%29.74 "Hg10 mi
9:52 PM51 °FOvercast.5 mph71%29.73 "Hg10 mi
8:52 PM51 °FOvercast.5 mph71%29.73 "Hg10 mi
7:52 PM52 °FOvercast.6 mph75%29.73 "Hg10 mi
6:52 PM52 °FOvercast.3 mph75%29.72 "Hg10 mi
5:52 PM52 °FOvercast.6 mph75%29.71 "Hg10 mi
4:52 PM54 °FOvercast.5 mph72%29.70 "Hg10 mi
3:52 PM55 °FOvercast.7 mph72%29.69 "Hg10 mi
2:52 PM54 °FOvercast.7 mph74%29.68 "Hg10 mi
1:52 PM53 °FOvercast.8 mph77%29.68 "Hg10 mi
12:52 PM53 °FOvercast.7 mph77%29.68 "Hg10 mi
11:52 AM53 °FOvercast.8 mph80%29.70 "Hg10 mi
10:52 AM52 °FOvercast.8 mph86%29.70 "Hg10 mi
9:52 AM51 °FOvercast.7 mph89%29.70 "Hg10 mi
8:52 AM51 °FFog.7 mph92%29.69 "Hg4 mi
7:52 AM50 °FOvercast.6 mph93%29.68 "Hg10 mi
6:52 AM50 °FOvercast.7 mph93%29.67 "Hg10 mi
5:52 AM50 °FOvercast.8 mph93%29.66 "Hg10 mi
5:01 AM50 °FLight rain. Fog.9 mph93%29.65 "Hg5 mi
4:52 AM50 °FLight rain. Low clouds.6 mph93%29.65 "Hg7 mi
3:52 AM50 °FLow clouds.8 mph93%29.64 "Hg9 mi
Weather by CustomWeather, © 2014

See weather overviewHow to use our weather pages